Location: Rostock
(54.0884°N, 12.1234°E)
Time: 01:14:35
(UTC+02:00)

ISS - Visible Passes

Search period start: 22 October 2019 00:00
Search period end: 31 October 2019 23:00
Orbit: 411 x 421 km, 51.6° (Epoch: 21 October)

Date Brightness Start Highest point End Pass type
(mag) Time Alt. Az. Time Alt. Az. Time Alt. Az.
26 Oct -1.0 06:49:49 10° S 06:52:06 17° SSE 06:54:24 10° ESE visible
27 Oct -0.9 05:02:15 10° SSE 05:03:43 12° SE 05:05:10 10° ESE visible
28 Oct -2.0 05:48:17 10° SW 05:51:15 29° SSE 05:54:13 10° E visible
29 Oct -1.6 05:01:14 16° S 05:02:46 22° SSE 05:05:27 10° E visible
30 Oct -1.1 04:14:50 16° SE 04:14:50 16° SE 04:16:30 10° ESE visible
30 Oct -2.8 05:47:44 13° SW 05:50:29 43° SSE 05:53:42 10° E visible
31 Oct -2.6 05:01:13 31° S 05:01:55 35° SSE 05:05:01 10° E visible
